GW7196 Weather Reports


Display with metric or nautical units.
time (UTC)temp
F
wind
direction
speed
MPH
gust
MPH
rain 1hr
in
rain 24hr
in
rain mn
in
humidity
%
barometer
mb
20260506073437 57 137 3.0 4.0 0.00 0.00 0.00 86 1009.0
20260506072935 57 115 4.0 4.0 0.00 0.00 0.00 85 1009.3
20260506072432 57 123 4.0 5.0 0.00 0.00 0.00 85 1009.4
20260506071929 57 122 4.0 5.0 0.00 0.00 0.00 85 1009.3
20260506071427 57 119 3.0 4.0 0.00 0.00 0.00 85 1009.5
20260506070924 57 135 3.0 4.0 0.00 0.00 0.00 85 1009.6
20260506070421 57 106 3.0 4.0 0.00 0.00 0.00 84 1009.4
20260506062358 57 128 2.0 3.0 0.00 0.00 0.00 84 1009.5
20260506061854 58 127 2.0 3.0 0.00 0.00 0.00 83 1009.5
20260506061351 58 123 3.0 3.0 0.00 0.00 0.00 83 1009.4
20260506060849 58 146 2.0 3.0 0.00 0.00 0.00 83 1009.6
20260506060347 58 128 3.0 3.0 0.00 0.00 0.00 82 1009.6
20260506051318 59 131 2.0 3.0 0.00 0.00 0.00 81 1010.0
20260506050816 59 127 3.0 3.0 0.00 0.00 0.00 81 1009.9
20260506050313 59 141 3.0 3.0 0.00 0.00 0.00 81 1009.8
20260506044804 59 142 2.0 3.0 0.00 0.00 0.00 80 1009.9
20260506044301 59 136 2.0 3.0 0.00 0.00 0.00 80 1010.1
20260506043758 59 138 2.0 3.0 0.00 0.00 0.00 79 1010.1
20260506043255 59 152 2.0 2.0 0.00 0.00 0.00 78 1009.9
20260506042754 60 151 2.0 3.0 0.00 0.00 0.00 78 1010.1
20260506042253 60 139 2.0 2.0 0.00 0.00 0.00 76 1010.0
20260506041751 60 132 2.0 3.0 0.00 0.00 0.00 76 1009.8
20260506041248 60 154 2.0 2.0 0.00 0.00 0.00 76 1009.9
20260506040745 60 142 2.0 2.0 0.00 0.00 0.00 76 1009.8
20260506040242 60 155 2.0 2.0 0.00 0.00 0.00 76 1010.0
20260506035739 60 143 2.0 3.0 0.00 0.00 0.00 75 1009.7
20260506035235 60 148 2.0 3.0 0.00 0.00 0.00 75 1010.0
20260506034732 60 141 2.0 2.0 0.00 0.00 0.00 74 1009.8
20260506034230 61 162 2.0 2.0 0.00 0.00 0.00 75 1009.9
20260506033727 61 142 2.0 2.0 0.00 0.00 0.00 74 1009.9
20260506033224 61 150 2.0 3.0 0.00 0.00 0.00 73 1009.8
20260506032721 61 149 2.0 2.0 0.00 0.00 0.00 72 1009.8
20260506032217 62 152 2.0 2.0 0.00 0.00 0.00 72 1009.7
20260506031714 62 145 2.0 2.0 0.00 0.00 0.00 72 1009.6
20260506031212 62 167 2.0 3.0 0.00 0.00 0.00 72 1009.7
20260506030710 62 133 2.0 2.0 0.00 0.00 0.00 72 1009.7
20260506030207 62 151 2.0 3.0 0.00 0.00 0.00 73 1009.7
20260506025704 62 144 2.0 3.0 0.00 0.00 0.00 72 1009.8
20260506025200 62 153 2.0 2.0 0.00 0.00 0.00 72 1009.6
20260506024657 62 143 2.0 3.0 0.00 0.00 0.00 72 1009.6
20260506024153 62 186 2.0 2.0 0.00 0.00 0.00 72 1009.6
20260506023650 62 189 2.0 2.0 0.00 0.00 0.00 72 1009.8
20260506023147 62 153 2.0 2.0 0.00 0.00 0.00 71 1009.8
20260506022644 62 141 2.0 2.0 0.00 0.00 0.00 72 1009.8
20260506022142 62 181 1.0 2.0 0.00 0.00 0.00 71 1009.7
20260506021639 62 160 2.0 2.0 0.00 0.00 0.00 71 1009.8
20260506021136 62 176 1.0 2.0 0.00 0.00 0.00 71 1009.7
20260506020633 62 167 2.0 3.0 0.00 0.00 0.00 71 1009.8
20260506020131 62 154 2.0 2.0 0.00 0.00 0.00 71 1009.6
20260506015628 62 209 0.0 3.0 0.00 0.00 0.00 71 1009.6
20260506015125 62 139 2.0 3.0 0.00 0.00 0.00 71 1009.6
20260506014623 62 161 2.0 2.0 0.00 0.00 0.00 71 1009.5
20260506014118 62 187 1.0 2.0 0.00 0.00 0.00 70 1009.5
20260506013617 62 231 2.0 2.0 0.00 0.00 0.00 70 1009.3
20260506013113 62 120 2.0 4.0 0.00 0.00 0.00 70 1009.2
20260506012609 63 125 2.0 2.0 0.00 0.00 0.00 69 1009.1
20260506012106 63 193 2.0 4.0 0.00 0.00 0.00 68 1009.1
20260506011604 63 145 2.0 3.0 0.00 0.00 0.00 68 1009.0
20260506011100 64 146 3.0 5.0 0.00 0.00 0.00 67 1008.9
20260506010554 64 146 2.0 4.0 0.00 0.00 0.00 66 1009.0
20260506010050 64 136 4.0 4.0 0.00 0.00 0.00 65 1008.9
20260506005547 65 140 4.0 5.0 0.00 0.00 0.00 64 1008.9
20260506005043 65 142 3.0 5.0 0.00 0.00 0.00 63 1008.8
20260506004540 65 134 3.0 5.0 0.00 0.00 0.00 64 1008.9
20260506004037 65 118 5.0 5.0 0.00 0.00 0.00 64 1008.8
20260506003533 66 141 3.0 3.0 0.00 0.00 0.00 64 1008.6
20260506003030 66 133 3.0 4.0 0.00 0.00 0.00 62 1008.7
20260506002526 66 136 3.0 4.0 0.00 0.00 0.00 63 1008.5
20260506002021 66 122 2.0 3.0 0.00 0.00 0.00 61 1008.6
20260506001518 66 122 4.0 5.0 0.00 0.00 0.00 62 1008.4
20260506001015 67 172 1.0 4.0 0.00 0.00 0.00 61 1008.5
20260506000513 67 142 2.0 3.0 0.00 0.00 0.00 60 1008.3
20260506000010 67 146 2.0 4.0 0.00 0.00 0.00 59 1008.5
20260505235508 67 135 3.0 4.0 0.00 0.00 0.00 60 1008.3
20260505235004 67 142 2.0 3.0 0.00 0.00 0.00 62 1008.3
20260505234502 67 121 4.0 4.0 0.00 0.00 0.00 61 1008.3
20260505233958 67 148 2.0 5.0 0.00 0.00 0.00 61 1008.1
20260505233456 68 125 4.0 4.0 0.00 0.00 0.00 60 1008.2
20260505232953 68 152 2.0 3.0 0.00 0.00 0.00 58 1007.9
20260505232451 68 140 2.0 3.0 0.00 0.00 0.00 58 1007.8
20260505231948 69 141 0.0 3.0 0.00 0.00 0.00 58 1007.6
20260505231445 69 138 3.0 4.0 0.00 0.00 0.00 57 1007.6
20260505230943 69 127 3.0 4.0 0.00 0.00 0.00 56 1007.7
20260505230441 70 124 4.0 4.0 0.00 0.00 0.00 57 1007.6
20260505225937 70 120 3.0 4.0 0.00 0.00 0.00 56 1007.5
20260505225434 70 140 2.0 4.0 0.00 0.00 0.00 56 1007.5
20260505224930 71 172 2.0 3.0 0.00 0.00 0.00 53 1007.6
20260505224427 71 146 3.0 3.0 0.00 0.00 0.00 54 1007.4
20260505223924 71 157 1.0 2.0 0.00 0.00 0.00 52 1007.3
20260505223421 71 123 4.0 4.0 0.00 0.00 0.00 53 1007.3
20260505222917 72 117 5.0 6.0 0.00 0.00 0.00 52 1007.3
20260505222414 72 151 2.0 3.0 0.00 0.00 0.00 50 1007.0
20260505221910 73 134 4.0 4.0 0.00 0.00 0.00 52 1007.2
20260505221407 73 129 3.0 3.0 0.00 0.00 0.00 54 1007.3
20260505220904 73 147 2.0 2.0 0.00 0.00 0.00 51 1007.1
20260505220401 73 195 2.0 4.0 0.00 0.00 0.00 52 1007.4
20260505215859 73 143 2.0 3.0 0.00 0.00 0.00 52 1007.3
20260505215357 73 139 3.0 5.0 0.00 0.00 0.00 50 1007.2
20260505214854 73 138 3.0 5.0 0.00 0.00 0.00 51 1007.2
20260505214351 74 111 4.0 5.0 0.00 0.00 0.00 50 1007.1
20260505213849 74 128 2.0 2.0 0.00 0.00 0.00 50 1007.1
20260505213347 74 124 3.0 4.0 0.00 0.00 0.00 48 1007.1
20260505212842 75 150 1.0 4.0 0.00 0.00 0.00 47 1006.8
20260505212340 75 148 2.0 5.0 0.00 0.00 0.00 47 1006.8
20260505211836 75 125 5.0 5.0 0.00 0.00 0.00 49 1006.9
20260505211333 75 155 3.0 3.0 0.00 0.00 0.00 50 1006.9
20260505210830 75 115 4.0 4.0 0.00 0.00 0.00 49 1006.8
20260505210327 76 136 4.0 5.0 0.00 0.00 0.00 48 1006.8
20260505205823 76 145 1.0 3.0 0.00 0.00 0.00 48 1006.8
20260505205322 75 151 3.0 6.0 0.00 0.00 0.00 47 1006.8
20260505204818 76 138 3.0 4.0 0.00 0.00 0.00 49 1006.9
20260505204317 76 121 3.0 5.0 0.00 0.00 0.00 48 1006.7
20260505203814 76 110 3.0 3.0 0.00 0.00 0.00 48 1007.0
20260505203310 76 136 4.0 6.0 0.00 0.00 0.00 46 1007.0
20260505202806 76 152 2.0 4.0 0.00 0.00 0.00 48 1007.2
20260505202306 76 101 2.0 4.0 0.00 0.00 0.00 47 1007.2
20260505201759 76 86 3.0 5.0 0.00 0.00 0.00 46 1007.0
20260505201257 77 133 4.0 5.0 0.00 0.00 0.00 47 1007.1
20260505200755 77 135 6.0 6.0 0.00 0.00 0.00 45 1007.2
20260505200252 77 114 3.0 4.0 0.00 0.00 0.00 45 1007.2
20260505195747 78 119 5.0 6.0 0.00 0.00 0.00 44 1007.2
20260505195245 78 112 3.0 6.0 0.00 0.00 0.00 45 1007.4
20260505194742 78 109 4.0 6.0 0.00 0.00 0.00 45 1007.4
20260505194238 78 6 2.0 4.0 0.00 0.00 0.00 45 1007.5
20260505193734 79 107 3.0 6.0 0.00 0.00 0.00 44 1007.6
20260505193232 80 108 4.0 5.0 0.00 0.00 0.00 42 1007.7
20260505192730 80 333 1.0 4.0 0.00 0.00 0.00 42 1007.7
20260505192227 80 142 3.0 5.0 0.00 0.00 0.00 42 1007.6
20260505191725 81 115 3.0 4.0 0.00 0.00 0.00 42 1007.7
20260505191224 81 107 3.0 4.0 0.00 0.00 0.00 42 1007.7
20260505190719 81 124 3.0 4.0 0.00 0.00 0.00 41 1007.6
20260505190219 81 170 2.0 5.0 0.00 0.00 0.00 42 1007.8
20260505185716 81 124 3.0 6.0 0.00 0.00 0.00 40 1007.9
20260505185213 82 113 3.0 4.0 0.00 0.00 0.00 40 1008.1
20260505184709 83 138 3.0 6.0 0.00 0.00 0.00 39 1008.1
20260505184206 83 76 1.0 4.0 0.00 0.00 0.00 38 1008.1
20260505183703 83 347 1.0 3.0 0.00 0.00 0.00 38 1008.3
20260505183200 84 104 0.0 4.0 0.00 0.00 0.00 39 1008.3
20260505182656 84 135 0.0 3.0 0.00 0.00 0.00 39 1008.2
20260505182154 83 91 0.0 4.0 0.00 0.00 0.00 39 1008.3
20260505181650 83 147 3.0 4.0 0.00 0.00 0.00 39 1008.3
20260505181148 84 135 2.0 4.0 0.00 0.00 0.00 38 1008.1
20260505180643 84 264 0.0 3.0 0.00 0.00 0.00 40 1008.4
20260505180141 85 115 3.0 5.0 0.00 0.00 0.00 37 1008.3
20260505175637 84 273 1.0 2.0 0.00 0.00 0.00 39 1008.3
20260505175133 84 176 1.0 4.0 0.00 0.00 0.00 39 1008.3
20260505174630 84 116 3.0 5.0 0.00 0.00 0.00 37 1008.3
20260505174126 86 120 5.0 5.0 0.00 0.00 0.00 36 1008.4
20260505173623 85 266 3.0 3.0 0.00 0.00 0.00 42 1008.5
20260505173120 84 166 2.0 3.0 0.00 0.00 0.00 38 1008.4
20260505172618 85 74 2.0 4.0 0.00 0.00 0.00 34 1008.7
20260505172114 84 134 1.0 2.0 0.00 0.00 0.00 38 1008.7
20260505171614 83 115 1.0 3.0 0.00 0.00 0.00 38 1008.7
20260505171112 83 180 2.0 4.0 0.00 0.00 0.00 38 1008.7
20260505170609 83 1 0.0 3.0 0.00 0.00 0.00 37 1008.9
20260505170105 83 106 3.0 5.0 0.00 0.00 0.00 38 1008.8
20260505165600 83 148 2.0 6.0 0.00 0.00 0.00 37 1009.0
20260505165056 82 131 1.0 4.0 0.00 0.00 0.00 37 1009.1
20260505164552 82 128 2.0 3.0 0.00 0.00 0.00 38 1009.1
20260505164050 82 116 4.0 4.0 0.00 0.00 0.00 38 1009.1
20260505163548 82 134 2.0 3.0 0.00 0.00 0.00 39 1009.3
20260505163045 82 97 2.0 2.0 0.00 0.00 0.00 38 1009.5
20260505162538 82 182 1.0 3.0 0.00 0.00 0.00 39 1009.3
20260505162035 81 94 3.0 3.0 0.00 0.00 0.00 40 1009.5
20260505161532 80 129 2.0 4.0 0.00 0.00 0.00 39 1009.6
20260505161029 81 114 2.0 4.0 0.00 0.00 0.00 40 1009.5
20260505160527 80 224 2.0 2.0 0.00 0.00 0.00 43 1009.7
20260505153003 76 256 2.0 5.0 0.00 0.00 0.00 45 1009.9
20260505152500 76 248 0.0 2.0 0.00 0.00 0.00 45 1010.0
20260505151955 75 133 2.0 2.0 0.00 0.00 0.00 49 1010.1
20260505151451 74 156 2.0 4.0 0.00 0.00 0.00 50 1010.0
20260505150949 73 147 3.0 5.0 0.00 0.00 0.00 49 1010.1
20260505150445 73 216 1.0 5.0 0.00 0.00 0.00 50 1010.3
20260505140415 69 119 3.0 4.0 0.00 0.00 0.00 59 1010.5
20260505124829 61 127 2.0 3.0 0.00 0.00 0.00 76 1010.2
20260505124326 60 140 2.0 4.0 0.00 0.00 0.00 79 1010.3
20260505123822 59 142 3.0 4.0 0.00 0.00 0.00 81 1010.3
20260505123319 58 146 2.0 4.0 0.00 0.00 0.00 83 1010.3
20260505122815 58 135 2.0 4.0 0.00 0.00 0.00 83 1010.2
20260505122312 58 139 3.0 4.0 0.00 0.00 0.00 84 1010.0
20260505121808 58 112 3.0 4.0 0.00 0.00 0.00 84 1010.0
20260505121306 57 127 4.0 4.0 0.00 0.00 0.00 83 1009.9
20260505120802 56 138 4.0 4.0 0.00 0.00 0.00 85 1010.1
20260505120258 55 138 3.0 3.0 0.00 0.00 0.00 90 1009.7
20260505115757 55 142 3.0 4.0 0.00 0.00 0.00 90 1009.8
20260505115254 55 144 3.0 4.0 0.00 0.00 0.00 88 1010.2
20260505114752 55 141 4.0 4.0 0.00 0.00 0.00 87 1010.7
20260505114248 56 134 3.0 3.0 0.02 0.00 0.00 86 1010.7
20260505113744 56 126 3.0 4.0 0.00 0.00 0.00 83 1010.7
20260505113241 57 137 2.0 3.0 0.00 0.00 0.00 82 1010.6
20260505112737 56 136 2.0 4.0 0.00 0.00 0.00 83 1010.7
20260505112235 56 144 2.0 3.0 0.00 0.00 0.00 85 1010.7
20260505111734 55 136 2.0 3.0 0.00 0.00 0.00 85 1010.6
20260505111231 54 141 3.0 3.0 0.00 0.00 0.00 86 1010.5
20260505110727 54 147 2.0 2.0 0.00 0.00 0.00 87 1010.5
20260505110225 53 147 2.0 3.0 0.00 0.00 0.00 88 1010.4
20260505102200 49 140 3.0 3.0 0.00 0.00 0.00 93 1010.0
20260505101659 49 133 3.0 4.0 0.00 0.00 0.00 93 1010.1
20260505101154 49 132 2.0 3.0 0.00 0.00 0.00 93 1010.0
20260505100651 49 132 4.0 4.0 0.00 0.00 0.00 93 1009.9
20260505100148 49 135 2.0 3.0 0.00 0.00 0.00 93 1009.7
20260505095644 49 144 2.0 3.0 0.00 0.00 0.00 92 1009.8
20260505095141 49 129 2.0 3.0 0.00 0.00 0.00 92 1009.6
20260505094637 49 151 2.0 4.0 0.00 0.00 0.00 92 1009.5
20260505094133 49 150 2.0 4.0 0.00 0.00 0.00 92 1009.6
20260505093630 49 134 4.0 4.0 0.00 0.00 0.00 92 1009.5
20260505093127 49 141 2.0 3.0 0.00 0.00 0.00 91 1009.3
20260505092624 49 148 3.0 4.0 0.00 0.00 0.00 91 1009.3
20260505092123 49 142 3.0 4.0 0.00 0.00 0.00 91 1009.5
20260505091619 49 143 3.0 4.0 0.00 0.00 0.00 90 1009.2
20260505091118 49 133 3.0 3.0 0.00 0.00 0.00 90 1009.3
20260505090615 49 141 2.0 3.0 0.00 0.00 0.00 90 1009.2
20260505090113 49 135 2.0 3.0 0.00 0.00 0.00 90 1009.3
20260505085610 49 131 3.0 3.0 0.00 0.00 0.00 90 1009.2
20260505085109 49 137 3.0 3.0 0.00 0.00 0.00 89 1009.4
20260505084606 50 139 2.0 3.0 0.00 0.00 0.00 89 1009.1
20260505084104 50 131 3.0 3.0 0.00 0.00 0.00 89 1009.2
20260505083601 50 140 2.0 3.0 0.00 0.00 0.00 88 1009.2
20260505083057 50 138 2.0 3.0 0.00 0.00 0.00 88 1009.5
20260505082553 50 131 3.0 3.0 0.00 0.00 0.00 88 1009.3
20260505082051 50 133 3.0 3.0 0.00 0.00 0.00 87 1009.5
20260505081547 50 133 3.0 3.0 0.00 0.00 0.00 87 1009.5
20260505081044 50 123 4.0 4.0 0.00 0.00 0.00 87 1009.4
20260505080540 50 146 2.0 3.0 0.00 0.00 0.00 86 1009.5